Погода в Красном

Россия / Орловская область     52°49′47″N   36°44′26″E
темп.,
°C
ветер,
м/с
пор.,
м/с
влажн.,
%
обл.,
%
осадки,
мм/ч
давл.,
гПа
погр.,
м
21 апреля, ср
ср2100:00+3св5894100 0.1 1006501
03:00+3с4698100 0.8 1005377
06:00+2сз3699100 0.1 1005342
09:00+3зсз4592100 0.1 1007502
12:00+5з4684100 0.1 1009715
15:00+7зюз4671100 0.1 10101216
18:00+6зюз3483100 0.1 1012728
21:00+5з2490100 0.4 1014569
22 апреля, чт
чт2200:00+4зюз3693100 0.6 1015677
03:00+4зюз4594100 0.6 1016612
06:00+4ююз378899 0.0 1017406
09:00+7ю467637 0.0 1018475
12:00+12ююз676548 0.2 10181220
15:00+13ююз685933 0.6 10171587
18:00+12ююз597338 1.3 1017600
21:00+9ююз51288100 2.8 1018304
23 апреля, пт
пт2300:00+8ю5128574 0.1 1018250
03:00+8ю5128484 0.2 1018273
06:00+7ю5138577 0.0 1018271
09:00+12ю6127191 0.1 1017589
12:00+16ю8104765 0.0 10162392
15:00+14ююв7105774 0.0 10151162
18:00+14ююв71160100 0.2 1013985
21:00+11ю71476100 2.2 1013583
24 апреля, сб
сб2400:00+8ю4128998 0.3 1012610
03:00+5зсз5894100 2.9 1011408
06:00+4зсз6996100 0.7 1012709
09:00+5зсз5777100 0.8 1013933
12:00+9зюз565885 0.4 10121607
15:00+8зюз785995 2.1 10121581
18:00+7з696584 0.9 10121279
21:00+4зюз4880100 1.4 1014352
25 апреля, вс
вс2500:00+3зюз38885 0.0 1014221
03:00+1зюз38905 0.0 1015224
06:00+1зюз388939 0.0 1015243
09:00+5зюз577015 0.0 10151027
12:00+5з586580 0.4 10161375
15:00+9зюз6845100 0.6 10152180
18:00+8юз575386 0.1 10151362
21:00+5ююз227183 0.3 101613